Location: Limerick
(52.6800°N, 8.6400°W)
Time: 19:27:47
(UTC+00:00)

Amateur Radio Satellites - All Passes

Search period start: 24 February 2017 18:57
Search period end: 25 February 2017 18:57
Location: Limerick, 52.6800°N, 8.6400°W

Satellite Date Start Highest point End Downlink Frequencies (MHz)
Time Altitude Azimuth
XW-2C 24 Feb 18:57:58 19:00:42 18° 270° (W) 19:03:26 145.795 - 145.815
STARS 24 Feb 19:08:31 19:12:07 25° 300° (WNW) 19:15:42 437.465
XW-2A 24 Feb 19:09:23 19:12:44 57° 258° (WSW) 19:16:10 145.665 - 145.685
NUDT-PHONESAT 24 Feb 19:14:27 19:16:38 15° 271° (W) 19:18:50 437.300
LilacSat-2 24 Feb 19:14:47 19:16:35 13° 273° (W) 19:18:23 437.200
CUTE 1.7 + AOD 2 24 Feb 19:16:26 19:20:44 82° 258° (WSW) 19:25:02 437.475
NO-84 24 Feb 19:20:55 19:24:23 68° 153° (SSE) 19:28:11 435.350 FM
CUBEBUG 2 24 Feb 19:23:12 19:27:37 60° 70° (ENE) 19:32:12 437.445
RS-15 24 Feb 19:26:01 19:38:11 87° 314° (NW) 19:50:42 29.354- 29.394
AO-73 24 Feb 19:39:45 19:43:50 36° 65° (ENE) 19:48:01 145.935
Oscar 11 24 Feb 19:47:58 19:51:59 37° 66° (ENE) 19:56:00 .
PCSat 24 Feb 19:54:54 19:59:21 25° 336° (NNW) 20:03:50 145.827
M-CUBED/EXP-1 PRIME 24 Feb 19:57:44 20:00:06 17° 307° (NW) 20:02:33 437.505
UWE-3 24 Feb 20:02:49 20:07:19 90° 62° (ENE) 20:11:58 435.000/436.395/437.385
AAUSAT CUBESAT 2 24 Feb 20:08:20 20:12:29 67° 259° (WSW) 20:16:38 437.432
DELFI C3 24 Feb 20:16:11 20:19:25 24° 63° (ENE) 20:22:38 145.870
SEEDS 24 Feb 20:16:29 20:20:17 32° 265° (W) 20:24:08 437.485
STRAND 1 24 Feb 20:24:02 20:29:15 90° 115° (ESE) 20:34:25 437.568
ZACube-1 24 Feb 20:26:15 20:30:45 86° 257° (WSW) 20:35:23 437.345
HO-68 24 Feb 20:36:52 20:42:52 28° 269° (W) 20:48:54 435.675
YUBILEINY 24 Feb 20:49:40 20:57:55 43° 65° (ENE) 21:06:04 435.215
CUTE 1.7 + AOD 2 24 Feb 20:55:55 20:57:17 11° 275° (W) 20:58:39 437.475
NO-84 24 Feb 20:58:31 21:02:10 61° 355° (N) 21:06:10 435.350 FM
CUBEBUG 2 24 Feb 21:01:16 21:04:39 21° 271° (W) 21:08:07 437.445
AO-73 24 Feb 21:15:59 21:20:05 34° 265° (W) 21:24:16 145.935
LO-87 24 Feb 21:18:33 21:20:44 16° 60° (ENE) 21:22:55 145.935 - 145.965
Oscar 11 24 Feb 21:24:17 21:28:10 31° 265° (W) 21:32:05 .
ESTCUBE 1 24 Feb 21:38:19 21:41:33 20° 57° (ENE) 21:44:46 437.505/2401.250
RS-15 24 Feb 21:40:27 21:52:22 51° 344° (NNW) 22:04:22 29.354- 29.394
PCSat 24 Feb 21:40:58 21:44:37 18° 2° (N) 21:48:17 145.827
UWE-3 24 Feb 21:42:08 21:44:29 14° 275° (W) 21:46:52 435.000/436.395/437.385
DELFI C3 24 Feb 21:50:16 21:54:02 41° 262° (W) 21:57:49 145.870
UNISAT 6 24 Feb 21:54:54 21:58:45 24° 91° (E) 22:02:33 437.425
TIGRISAT 24 Feb 21:55:33 21:59:20 23° 91° (E) 22:03:03 435.000
PRISM 24 Feb 22:02:19 22:06:18 50° 101° (E) 22:10:17 437.425
STRAND 1 24 Feb 22:04:12 22:07:47 19° 307° (NW) 22:11:23 437.568
ZACube-1 24 Feb 22:05:38 22:07:47 13° 275° (W) 22:09:56 437.345
VELOX 1 24 Feb 22:08:42 22:11:11 15° 54° (NE) 22:13:40 145.980
O/OREOS (USA 219) 24 Feb 22:14:23 22:15:48 11° 97° (E) 22:17:13 437.305
SPROUT 24 Feb 22:23:38 22:26:12 16° 56° (NE) 22:28:45 437.525
FO-29 24 Feb 22:30:04 22:37:04 35° 90° (E) 22:43:34 435.910
NO-84 24 Feb 22:36:15 22:40:08 78° 15° (NNE) 22:44:21 435.350 FM
YUBILEINY 24 Feb 22:46:37 22:55:07 59° 269° (W) 23:03:34 435.215
LO-87 24 Feb 22:50:19 22:53:49 58° 259° (W) 22:57:21 145.935 - 145.965
SO-50 24 Feb 23:03:20 23:07:38 38° 123° (ESE) 23:11:55 436.795
EO-79 24 Feb 23:07:04 23:09:01 13° 86° (E) 23:10:57 145.935-145.965
ESTCUBE 1 24 Feb 23:13:24 23:17:54 71° 257° (WSW) 23:22:26 437.505/2401.250
50 SAT 24 Feb 23:22:53 23:26:06 36° 68° (ENE) 23:29:22 437.505
POLYITAN 1 24 Feb 23:23:29 23:26:30 18° 90° (E) 23:29:30 437.675
NANOSAT C BR1 24 Feb 23:23:57 23:26:47 17° 89° (E) 23:29:36 145.865
PCSat 24 Feb 23:25:11 23:29:49 27° 27° (NNE) 23:34:27 145.827
QB50P2 24 Feb 23:26:15 23:29:29 20° 91° (E) 23:32:43 145.880/145.840
UNISAT 6 24 Feb 23:31:08 23:35:45 54° 291° (WNW) 23:40:19 437.425
TIGRISAT 24 Feb 23:31:42 23:36:21 57° 290° (WNW) 23:40:56 435.000
DX 1 24 Feb 23:37:25 23:41:28 40° 66° (ENE) 23:45:33 434.975-435.025
PRISM 24 Feb 23:38:11 23:41:20 22° 300° (WNW) 23:44:29 437.425
VELOX 1 24 Feb 23:42:37 23:47:00 86° 79° (ENE) 23:51:26 145.980
AIST 2D 24 Feb 23:48:16 23:51:44 44° 99° (E) 23:55:09 435.315
O/OREOS (USA 219) 24 Feb 23:49:54 23:54:22 76° 117° (ESE) 23:58:54 437.305
UKube-1 24 Feb 23:51:18 23:55:20 41° 66° (ENE) 23:59:23 .
RS-15 24 Feb 23:55:48 00:07:51 52° 17° (NNE) 00:19:43 29.354- 29.394
SPROUT 24 Feb 23:57:17 00:01:32 86° 254° (WSW) 00:05:52 437.525
BUGSAT 1 24 Feb 23:57:56 23:59:59 13° 87° (E) 00:02:03 437.445
NO-84 25 Feb 00:13:58 00:17:44 39° 215° (SW) 00:21:45 435.350 FM
FO-29 25 Feb 00:14:51 00:22:37 68° 292° (WNW) 00:29:48 435.910
DUCHIFAT 1 25 Feb 00:31:17 00:35:33 64° 102° (ESE) 00:39:47 145.980
EO-79 25 Feb 00:41:06 00:45:26 90° 283° (WNW) 00:49:43 145.935-145.965
SO-50 25 Feb 00:43:34 00:48:04 48° 323° (NW) 00:52:32 436.795
YUBILEINY 25 Feb 00:45:39 00:49:56 15° 293° (WNW) 00:54:14 435.215
ESTCUBE 1 25 Feb 00:54:42 00:55:33 10° 276° (W) 00:56:25 437.505/2401.250
50 SAT 25 Feb 00:56:38 00:59:22 21° 266° (W) 01:02:07 437.505
POLYITAN 1 25 Feb 00:58:26 01:02:42 63° 289° (WNW) 01:06:57 437.675
NANOSAT C BR1 25 Feb 00:58:41 01:02:57 67° 288° (WNW) 01:07:12 145.865
QB50P2 25 Feb 01:01:24 01:05:37 55° 290° (WNW) 01:09:49 145.880/145.840
Gurwin Techsat 1B 25 Feb 01:06:10 01:08:38 13° 84° (E) 01:11:06 435.225
PCSat 25 Feb 01:08:32 01:14:01 82° 51° (NE) 01:19:28 145.827
UNISAT 6 25 Feb 01:10:06 01:11:29 11° 311° (NW) 01:12:52 437.425
TIGRISAT 25 Feb 01:10:27 01:12:05 12° 310° (NW) 01:13:42 435.000
ITUPSAT 1 25 Feb 01:10:52 01:14:51 26° 59° (ENE) 01:18:50 437.325
DX 1 25 Feb 01:14:04 01:17:48 28° 265° (W) 01:21:34 434.975-435.025
BEESAT 25 Feb 01:17:47 01:21:55 30° 61° (ENE) 01:26:05 436.000
VELOX 1 25 Feb 01:21:52 01:24:06 14° 273° (W) 01:26:21 145.980
AIST 2D 25 Feb 01:22:06 01:24:42 19° 298° (WNW) 01:27:17 435.315
UKube-1 25 Feb 01:27:48 01:31:30 27° 265° (W) 01:35:13 .
O/OREOS (USA 219) 25 Feb 01:30:47 01:34:18 22° 318° (NW) 01:37:52 437.305
BUGSAT 1 25 Feb 01:31:41 01:35:57 86° 286° (WNW) 01:40:13 437.445
SPROUT 25 Feb 01:36:33 01:38:10 12° 275° (W) 01:39:47 437.525
MOZHAYETS 4 25 Feb 01:46:16 01:49:46 22° 58° (ENE) 01:53:17
FO-29 25 Feb 02:00:40 02:06:19 22° 315° (NW) 02:11:45 435.910
Oscar 19 25 Feb 02:05:20 02:10:25 60° 102° (ESE) 02:15:29 437.125/150
DUCHIFAT 1 25 Feb 02:07:44 02:10:51 20° 301° (WNW) 02:13:56 145.980
RS-15 25 Feb 02:09:26 02:21:56 89° 48° (NE) 02:33:59 29.354- 29.394
EO-79 25 Feb 02:18:08 02:20:35 15° 305° (NW) 02:23:02 145.935-145.965
KKS-1 25 Feb 02:23:39 02:26:17 16° 54° (NE) 02:28:55 437.445
SO-50 25 Feb 02:26:01 02:29:32 21° 346° (NNW) 02:33:02 436.795
POLYITAN 1 25 Feb 02:36:20 02:37:41 11° 309° (NW) 02:39:00 437.675
NANOSAT C BR1 25 Feb 02:36:21 02:37:53 12° 308° (NW) 02:39:26 145.865
ITAMSAT 1 25 Feb 02:38:25 02:41:40 16° 87° (E) 02:44:55 435.822/435.867
QB50P2 25 Feb 02:40:10 02:40:31 10° 310° (NW) 02:40:53 145.880/145.840
Gurwin Techsat 1B 25 Feb 02:44:12 02:49:33 73° 104° (ESE) 02:54:52 435.225
CUBESAT XI-V 25 Feb 02:44:31 02:47:17 16° 55° (NE) 02:50:04 437.345
ITUPSAT 1 25 Feb 02:47:41 02:52:24 55° 259° (W) 02:57:10 437.325
PCSat 25 Feb 02:52:44 02:56:50 22° 251° (WSW) 03:00:56 145.827
BEESAT 25 Feb 02:54:55 02:59:33 47° 261° (W) 03:04:12 436.000
AO-7 25 Feb 02:59:21 03:05:51 24° 89° (E) 03:12:17 .
STARS 25 Feb 02:59:35 03:02:19 16° 55° (NE) 03:05:03 437.465
BUGSAT 1 25 Feb 03:08:25 03:10:42 14° 305° (NW) 03:12:58 437.445
MOZHAYETS 4 25 Feb 03:21:54 03:26:31 67° 258° (WSW) 03:31:10
M-CUBED/EXP-1 PRIME 25 Feb 03:40:37 03:43:23 26° 58° (ENE) 03:46:10 437.505
Oscar 19 25 Feb 03:45:11 03:49:26 27° 302° (WNW) 03:53:40 437.125/150
KKS-1 25 Feb 03:57:47 04:02:13 89° 75° (ENE) 04:06:42 437.445
SO-50 25 Feb 04:08:05 04:11:29 20° 11° (N) 04:14:51 436.795
ITAMSAT 1 25 Feb 04:16:37 04:21:54 89° 109° (ESE) 04:27:09 435.822/435.867
CUBESAT XI-V 25 Feb 04:19:21 04:24:01 85° 74° (ENE) 04:28:41 437.345
RS-15 25 Feb 04:22:35 04:33:09 36° 254° (WSW) 04:43:24 29.354- 29.394
Gurwin Techsat 1B 25 Feb 04:24:52 04:29:03 24° 304° (NW) 04:33:13 435.225
STARS 25 Feb 04:33:42 04:38:05 86° 254° (WSW) 04:42:32 437.465
AO-85 25 Feb 04:46:29 04:50:15 27° 120° (ESE) 04:53:50 145.980
AO-7 25 Feb 04:51:25 04:59:49 86° 111° (ESE) 05:08:08 .
MOZHAYETS 4 25 Feb 05:04:14 05:04:36 10° 277° (W) 05:04:59
M-CUBED/EXP-1 PRIME 25 Feb 05:15:01 05:17:52 27° 257° (WSW) 05:20:45 437.505
CUTE-I 25 Feb 05:22:18 05:23:59 11° 82° (E) 05:25:41 437.470
KKS-1 25 Feb 05:37:14 05:39:27 14° 273° (W) 05:41:40 437.445
SO-50 25 Feb 05:48:42 05:53:03 42° 35° (NE) 05:57:20 436.795
ITAMSAT 1 25 Feb 05:57:02 06:00:44 20° 307° (NW) 06:04:27 435.822/435.867
CUBESAT XI-V 25 Feb 05:59:22 06:02:03 15° 274° (W) 06:04:43 437.345
KAITUO 1B 25 Feb 06:02:18 06:04:54 17° 90° (E) 06:07:29 145.475/437.950
XW-2F 25 Feb 06:05:47 06:08:49 22° 92° (E) 06:11:49 145.980 - 146.000
STRAND 1 25 Feb 06:07:11 06:11:59 41° 64° (ENE) 06:16:50 437.568
DOVE 4 25 Feb 06:08:18 06:12:25 31° 95° (E) 06:16:44 437.250
XW-2D 25 Feb 06:09:56 06:13:10 25° 93° (E) 06:16:22 145.860 - 145.880
STARS 25 Feb 06:13:18 06:15:09 12° 274° (W) 06:17:00 437.465
XW-2B 25 Feb 06:14:54 06:18:14 27° 94° (E) 06:21:32 145.730 - 145.750
BEESAT 3 25 Feb 06:18:22 06:20:44 16° 114° (ESE) 06:23:08 437.485
XW-2C 25 Feb 06:23:24 06:26:56 33° 96° (E) 06:30:26 145.795 - 145.815
AO-85 25 Feb 06:26:11 06:30:29 55° 319° (NW) 06:34:31 145.980
O/OREOS (USA 219) 25 Feb 06:36:10 06:39:00 16° 35° (NE) 06:41:50 437.305
NUDT-PHONESAT 25 Feb 06:37:17 06:40:51 38° 97° (E) 06:44:23 437.300
LilacSat-2 25 Feb 06:39:31 06:43:18 50° 100° (E) 06:47:03 437.200
AO-7 25 Feb 06:44:44 06:51:50 33° 314° (NW) 06:58:55 .
BEESAT 2 25 Feb 06:55:18 06:57:46 16° 114° (ESE) 07:00:16 435.950
CUTE 1.7 + AOD 2 25 Feb 06:57:05 06:58:49 12° 85° (E) 07:00:33 437.475
CUTE-I 25 Feb 06:59:46 07:05:08 64° 102° (ESE) 07:10:29 437.470
FO-29 25 Feb 07:08:46 07:11:36 12° 30° (NNE) 07:14:27 435.910
PRISM 25 Feb 07:24:29 07:26:22 13° 54° (NE) 07:28:15 437.425
SO-50 25 Feb 07:29:16 07:33:35 44° 236° (SW) 07:37:50 436.795
KAITUO 1B 25 Feb 07:35:32 07:39:15 51° 290° (WNW) 07:42:54 145.475/437.950
XW-2F 25 Feb 07:39:31 07:43:09 41° 291° (WNW) 07:46:44 145.980 - 146.000
XW-2D 25 Feb 07:43:55 07:47:28 36° 293° (WNW) 07:50:59 145.860 - 145.880
AAUSAT CUBESAT 2 25 Feb 07:45:54 07:47:53 13° 86° (E) 07:49:53 437.432
DOVE 4 25 Feb 07:45:54 07:50:13 42° 292° (WNW) 07:54:46 437.250
STRAND 1 25 Feb 07:46:31 07:51:15 36° 264° (W) 07:56:01 437.568
UWE-3 25 Feb 07:47:46 07:50:16 14° 85° (E) 07:52:46 435.000/436.395/437.385
XW-2B 25 Feb 07:49:00 07:52:29 33° 293° (WNW) 07:55:56 145.730 - 145.750
BEESAT 3 25 Feb 07:53:52 07:57:48 84° 313° (NW) 08:01:49 437.485
SEEDS 25 Feb 07:53:58 07:57:37 28° 94° (E) 08:01:13 437.485
HO-68 25 Feb 07:56:02 08:02:55 47° 99° (E) 08:09:45 435.675
XW-2C 25 Feb 07:57:45 08:01:04 28° 295° (WNW) 08:04:21 145.795 - 145.815
XW-2A 25 Feb 07:58:12 08:01:40 63° 102° (ESE) 08:05:05 145.665 - 145.685
AO-85 25 Feb 08:08:37 08:11:40 19° 341° (NNW) 08:14:38 145.980
ZACube-1 25 Feb 08:10:00 08:12:25 14° 85° (E) 08:14:49 437.345
NUDT-PHONESAT 25 Feb 08:11:33 08:14:37 24° 297° (WNW) 08:17:41 437.300
LilacSat-2 25 Feb 08:14:26 08:17:18 20° 299° (WNW) 08:20:08 437.200
O/OREOS (USA 219) 25 Feb 08:14:46 08:19:20 65° 57° (ENE) 08:23:54 437.305
ISS 25 Feb 08:24:40 08:25:43 11° 139° (SE) 08:26:46 437.550
BEESAT 2 25 Feb 08:31:02 08:35:01 83° 314° (NW) 08:39:05 435.950
CUTE 1.7 + AOD 2 25 Feb 08:31:03 08:35:20 89° 103° (ESE) 08:39:33 437.475
AO-7 25 Feb 08:38:12 08:42:10 14° 340° (NNW) 08:46:09 .
CUTE-I 25 Feb 08:40:22 08:44:50 27° 303° (WNW) 08:49:17 437.470
CUBEBUG 2 25 Feb 08:44:17 08:49:02 62° 101° (E) 08:53:44 437.445
FO-29 25 Feb 08:47:53 08:54:22 34° 54° (NE) 09:01:09 435.910
Tancredo 1 25 Feb 08:50:08 08:52:19 17° 144° (SE) 08:54:31 437.200
PRISM 25 Feb 08:56:56 09:01:01 82° 73° (ENE) 09:05:07 437.425
AO-73 25 Feb 08:57:35 09:01:44 33° 94° (E) 09:05:48 145.935
UNISAT 6 25 Feb 08:59:01 09:03:16 40° 66° (ENE) 09:07:38 437.425
TIGRISAT 25 Feb 08:59:31 09:03:43 39° 66° (ENE) 09:08:02 435.000
Oscar 11 25 Feb 09:04:58 09:08:54 32° 95° (E) 09:12:48 .
AAUSAT CUBESAT 2 25 Feb 09:19:48 09:23:57 81° 285° (WNW) 09:28:03 437.432
DELFI C3 25 Feb 09:22:03 09:24:39 17° 90° (E) 09:27:14 145.870
UWE-3 25 Feb 09:22:42 09:27:26 89° 118° (ESE) 09:32:05 435.000/436.395/437.385
SEEDS 25 Feb 09:29:31 09:33:24 37° 293° (WNW) 09:37:14 437.485
XW-2A 25 Feb 09:32:06 09:34:01 14° 301° (WNW) 09:35:56 145.665 - 145.685
BEESAT 3 25 Feb 09:32:46 09:35:58 23° 335° (NNW) 09:39:13 437.485
HO-68 25 Feb 09:43:55 09:50:44 49° 300° (WNW) 09:57:31 435.675
ZACube-1 25 Feb 09:44:45 09:49:23 89° 271° (W) 09:53:55 437.345
AO-85 25 Feb 09:51:03 09:53:30 15° 6° (N) 09:55:54 145.980
O/OREOS (USA 219) 25 Feb 09:54:57 09:58:19 21° 258° (WSW) 10:01:42 437.305
DUCHIFAT 1 25 Feb 09:54:57 09:57:32 16° 56° (NE) 10:00:07 145.980
ISS 25 Feb 09:58:24 10:01:31 39° 157° (SSE) 10:04:38 437.550
YUBILEINY 25 Feb 09:58:44 10:06:34 38° 83° (E) 10:14:23 435.215
EO-79 25 Feb 10:04:30 10:07:43 21° 60° (ENE) 10:10:58 145.935-145.965
CUTE 1.7 + AOD 2 25 Feb 10:08:13 10:10:34 15° 304° (NW) 10:12:54 437.475
BEESAT 2 25 Feb 10:10:07 10:13:22 23° 336° (NNW) 10:16:39 435.950
NANOSAT C BR1 25 Feb 10:21:17 10:24:51 27° 62° (ENE) 10:28:27 145.865
POLYITAN 1 25 Feb 10:21:19 10:25:00 29° 63° (ENE) 10:28:44 437.675
CUBEBUG 2 25 Feb 10:21:30 10:25:16 24° 300° (WNW) 10:29:02 437.445
QB50P2 25 Feb 10:24:08 10:27:55 32° 64° (ENE) 10:31:45 145.880/145.840
Tancredo 1 25 Feb 10:24:56 10:28:06 51° 164° (SSE) 10:31:17 437.200
AIST 2D 25 Feb 10:28:09 10:31:31 41° 70° (ENE) 10:34:56 435.315
AO-7 25 Feb 10:28:57 10:31:32 12° 8° (N) 10:34:06 .
FO-29 25 Feb 10:31:23 10:38:43 78° 256° (WSW) 10:46:38 435.910
AO-73 25 Feb 10:33:47 10:38:01 38° 294° (WNW) 10:42:11 145.935
PRISM 25 Feb 10:34:58 10:36:53 13° 272° (W) 10:38:47 437.425
UNISAT 6 25 Feb 10:36:03 10:40:05 31° 266° (W) 10:44:13 437.425
TIGRISAT 25 Feb 10:36:23 10:40:28 32° 265° (W) 10:44:40 435.000
Oscar 11 25 Feb 10:41:06 10:45:04 35° 294° (WNW) 10:49:00 .
BUGSAT 1 25 Feb 10:52:50 10:55:53 21° 59° (ENE) 10:58:59 437.445
DELFI C3 25 Feb 10:55:56 10:59:49 58° 289° (WNW) 11:03:40 145.870
AAUSAT CUBESAT 2 25 Feb 10:56:53 10:58:45 13° 305° (NW) 11:00:36 437.432
UWE-3 25 Feb 11:00:14 11:03:16 17° 305° (NW) 11:06:15 435.000/436.395/437.385
ESTCUBE 1 25 Feb 11:00:47 11:03:39 16° 88° (E) 11:06:30 437.505/2401.250
BEESAT 3 25 Feb 11:12:37 11:14:54 15° 359° (N) 11:17:11 437.485
ZACube-1 25 Feb 11:22:12 11:25:02 16° 305° (NW) 11:27:50 437.345
DUCHIFAT 1 25 Feb 11:28:26 11:32:39 83° 254° (WSW) 11:36:56 145.980
VELOX 1 25 Feb 11:28:52 11:30:05 11° 85° (E) 11:31:16 145.980
AO-85 25 Feb 11:31:33 11:35:05 29° 30° (NNE) 11:38:34 145.980
HO-68 25 Feb 11:32:52 11:36:54 16° 323° (NW) 11:40:56 435.675
ISS 25 Feb 11:34:30 11:37:48 75° 177° (S) 11:41:06 437.550
EO-79 25 Feb 11:38:59 11:43:09 57° 259° (W) 11:47:23 145.935-145.965
SPROUT 25 Feb 11:39:01 11:40:28 11° 85° (E) 11:41:56 437.525
LO-87 25 Feb 11:44:47 11:48:24 75° 103° (ESE) 11:52:00 145.935 - 145.965
Oscar 19 25 Feb 11:49:55 11:54:18 29° 59° (ENE) 11:58:41 437.125/150
BEESAT 2 25 Feb 11:50:07 11:52:29 15° 359° (N) 11:54:51 435.950
YUBILEINY 25 Feb 11:54:12 12:02:57 65° 287° (WNW) 12:11:43 435.215
NANOSAT C BR1 25 Feb 11:56:25 12:00:25 42° 262° (W) 12:04:29 145.865
POLYITAN 1 25 Feb 11:56:42 12:00:42 39° 263° (W) 12:04:44 437.675
QB50P2 25 Feb 11:59:48 12:03:42 34° 264° (W) 12:07:38 145.880/145.840
Tancredo 1 25 Feb 12:01:01 12:04:17 75° 183° (S) 12:07:32 437.200
AIST 2D 25 Feb 12:02:20 12:04:57 19° 268° (W) 12:07:36 435.315
50 SAT 25 Feb 12:15:21 12:17:45 17° 92° (E) 12:20:10 437.505
AO-7 25 Feb 12:15:26 12:21:17 22° 35° (NE) 12:27:06 .
FO-29 25 Feb 12:19:43 12:25:02 21° 279° (W) 12:30:36 435.910
BUGSAT 1 25 Feb 12:26:54 12:30:54 56° 259° (WSW) 12:35:01 437.445
ITAMSAT 1 25 Feb 12:27:00 12:28:14 11° 43° (NE) 12:29:28 435.822/435.867
Gurwin Techsat 1B 25 Feb 12:32:07 12:36:59 38° 62° (ENE) 12:41:51 435.225
ESTCUBE 1 25 Feb 12:36:30 12:41:00 74° 287° (WNW) 12:45:27 437.505/2401.250
BEESAT 3 25 Feb 12:50:44 12:53:52 21° 23° (NNE) 12:56:59 437.485
DX 1 25 Feb 12:55:29 12:59:25 32° 96° (E) 13:03:21 434.975-435.025
VELOX 1 25 Feb 13:02:53 13:07:19 76° 104° (ESE) 13:11:44 145.980
DUCHIFAT 1 25 Feb 13:07:42 13:09:03 11° 275° (W) 13:10:24 145.980
UKube-1 25 Feb 13:08:06 13:12:00 31° 96° (E) 13:15:51 .
ISS 25 Feb 13:10:55 13:14:09 52° 197° (SSW) 13:17:22 437.550
AO-85 25 Feb 13:11:51 13:15:43 56° 233° (SW) 13:19:34 145.980
SPROUT 25 Feb 13:12:46 13:17:07 82° 104° (ESE) 13:21:26 437.525
LO-87 25 Feb 13:19:36 13:21:23 13° 302° (WNW) 13:23:10 145.935 - 145.965
Oscar 19 25 Feb 13:28:21 13:33:23 54° 259° (W) 13:38:27 437.125/150
BEESAT 2 25 Feb 13:28:25 13:31:37 22° 23° (NNE) 13:34:49 435.950
Tancredo 1 25 Feb 13:37:20 13:40:23 39° 203° (SSW) 13:43:26 437.200
50 SAT 25 Feb 13:47:47 13:51:06 43° 291° (WNW) 13:54:25 437.505
YUBILEINY 25 Feb 13:55:40 14:01:52 20° 313° (NW) 14:08:03 435.215
ITAMSAT 1 25 Feb 14:01:34 14:06:30 45° 64° (ENE) 14:11:28 435.822/435.867
AO-7 25 Feb 14:04:22 14:12:29 58° 59° (ENE) 14:20:36 .
Gurwin Techsat 1B 25 Feb 14:11:52 14:16:54 42° 262° (W) 14:21:58 435.225
ESTCUBE 1 25 Feb 14:14:52 14:17:04 14° 307° (NW) 14:19:15 437.505/2401.250
BEESAT 3 25 Feb 14:28:06 14:32:08 71° 45° (NE) 14:36:08 437.485
DX 1 25 Feb 14:31:40 14:35:38 36° 295° (WNW) 14:39:37 434.975-435.025
VELOX 1 25 Feb 14:40:18 14:43:18 18° 303° (WNW) 14:46:16 145.980
ITUPSAT 1 25 Feb 14:42:21 14:46:20 25° 93° (E) 14:50:17 437.325
UKube-1 25 Feb 14:44:07 14:48:04 36° 295° (WNW) 14:52:01 .
ISS 25 Feb 14:47:52 14:50:08 17° 216° (SW) 14:52:22 437.550
BEESAT 25 Feb 14:48:57 14:53:07 29° 94° (E) 14:57:15 436.000
SPROUT 25 Feb 14:49:47 14:52:29 16° 304° (NW) 14:55:12 437.525
BEESAT 2 25 Feb 15:05:58 15:10:02 73° 44° (NE) 15:14:06 435.950
MOZHAYETS 4 25 Feb 15:11:30 15:14:55 20° 90° (E) 15:18:17
Tancredo 1 25 Feb 15:15:03 15:15:59 11° 221° (SW) 15:16:57 437.200
ITAMSAT 1 25 Feb 15:41:22 15:46:06 34° 264° (W) 15:50:53 435.822/435.867
KKS-1 25 Feb 15:44:43 15:46:14 11° 85° (E) 15:47:44 437.445
PCSat 25 Feb 15:57:26 16:01:21 21° 108° (ESE) 16:05:17 145.827
AO-7 25 Feb 15:57:34 16:05:31 46° 261° (W) 16:13:30 .
BEESAT 3 25 Feb 16:06:26 16:09:20 19° 244° (WSW) 16:12:14 437.485
CUBESAT XI-V 25 Feb 16:11:09 16:13:39 14° 86° (E) 16:16:09 437.345
STARS 25 Feb 16:18:56 16:20:34 12° 86° (E) 16:22:11 437.465
ITUPSAT 1 25 Feb 16:19:46 16:24:29 54° 292° (WNW) 16:29:08 437.325
BEESAT 25 Feb 16:26:30 16:31:06 47° 294° (WNW) 16:35:40 436.000
RS-15 25 Feb 16:41:38 16:51:19 30° 102° (ESE) 17:01:12 29.354- 29.394
BEESAT 2 25 Feb 16:44:30 16:47:24 19° 244° (WSW) 16:50:17 435.950
HO-68 25 Feb 16:46:13 16:51:04 20° 42° (NE) 16:55:54 435.675
MOZHAYETS 4 25 Feb 16:47:55 16:52:31 64° 289° (WNW) 16:57:03
KAITUO 1B 25 Feb 16:47:59 16:50:53 21° 62° (ENE) 16:53:48 145.475/437.950
CUTE-I 25 Feb 16:48:30 16:53:16 34° 61° (ENE) 16:58:05 437.470
XW-2F 25 Feb 16:52:14 16:55:28 26° 64° (ENE) 16:58:44 145.980 - 146.000
XW-2D 25 Feb 16:56:40 17:00:03 30° 66° (ENE) 17:03:28 145.860 - 145.880
XW-2B 25 Feb 17:01:38 17:05:05 32° 66° (ENE) 17:08:34 145.730 - 145.750
XW-2C 25 Feb 17:10:05 17:13:41 39° 68° (ENE) 17:17:20 145.795 - 145.815
NO-84 25 Feb 17:15:24 17:17:11 14° 131° (SE) 17:19:02 435.350 FM
KKS-1 25 Feb 17:19:04 17:23:34 78° 105° (ESE) 17:28:03 437.445
DOVE 4 25 Feb 17:19:49 17:23:51 54° 70° (ENE) 17:28:00 437.250
NUDT-PHONESAT 25 Feb 17:22:07 17:25:42 42° 69° (ENE) 17:29:18 437.300
LilacSat-2 25 Feb 17:26:39 17:30:28 59° 72° (ENE) 17:34:20 437.200
PCSat 25 Feb 17:38:41 17:44:07 86° 309° (NW) 17:49:36 145.827
CUBESAT XI-V 25 Feb 17:47:04 17:51:43 87° 283° (WNW) 17:56:18 437.345
STARS 25 Feb 17:53:11 17:57:39 81° 104° (ESE) 18:02:06 437.465
CUTE 1.7 + AOD 2 25 Feb 17:54:44 17:57:51 20° 59° (ENE) 18:00:59 437.475
ITUPSAT 1 25 Feb 17:59:45 18:01:19 11° 313° (NW) 18:02:52 437.325
BEESAT 25 Feb 18:07:29 18:07:47 10° 314° (NW) 18:08:05 436.000
CUBEBUG 2 25 Feb 18:13:16 18:16:15 18° 55° (NE) 18:19:17 437.445
M-CUBED/EXP-1 PRIME 25 Feb 18:20:36 18:24:15 62° 108° (ESE) 18:28:11 437.505
KAITUO 1B 25 Feb 18:20:59 18:24:40 46° 261° (W) 18:28:23 145.475/437.950
XW-2F 25 Feb 18:25:56 18:29:31 36° 263° (W) 18:33:07 145.980 - 146.000
MOZHAYETS 4 25 Feb 18:26:55 18:28:48 12° 309° (NW) 18:30:41
AO-73 25 Feb 18:27:03 18:27:22 10° 49° (NE) 18:27:41 145.935
CUTE-I 25 Feb 18:28:03 18:33:12 48° 261° (W) 18:38:25 437.470
HO-68 25 Feb 18:30:31 18:37:34 63° 64° (ENE) 18:44:38 435.675
XW-2D 25 Feb 18:30:46 18:34:13 31° 264° (W) 18:37:43 145.860 - 145.880
XW-2A 25 Feb 18:35:00 18:38:20 55° 72° (ENE) 18:41:43 145.665 - 145.685
XW-2B 25 Feb 18:35:55 18:39:18 29° 265° (W) 18:42:43 145.730 - 145.750
AAUSAT CUBESAT 2 25 Feb 18:41:12 18:44:16 20° 60° (ENE) 18:47:20 437.432
XW-2C 25 Feb 18:44:52 18:48:02 24° 267° (W) 18:51:13 145.795 - 145.815
UWE-3 25 Feb 18:49:52 18:53:27 23° 59° (ENE) 18:57:06 435.000/436.395/437.385
